owner,sensor,date,latitude,longitude,vertical_datum,wind_speed,wind_to_direction,wind_speed_of_gust,qcFlag 
TCOON,ioos:station:TCOON:003:1,2009-10-01T00:00:00Z,26.8015,-97.4706,0.0,8.2,150.0,,'1111122,1111122,1111122' 
TCOON,ioos:station:TCOON:003:1,2009-10-01T02:00:00Z,26.8015,-97.4706,0.0,7.2,150.0,,'1111122,1111122,1111122' 
TCOON,ioos:station:TCOON:003:1,2009-10-01T03:00:00Z,26.8015,-97.4706,0.0,7.7,160.0,,'1111122,1111122,1111122' 
TCOON,ioos:station:TCOON:003:1,2009-10-01T04:00:00Z,26.8015,-97.4706,0.0,8.2,160.0,,'1111122,1111122,1111122' 
TCOON,ioos:station:TCOON:003:1,2009-10-01T05:00:00Z,26.8015,-97.4706,0.0,8.2,160.0,,'1111122,1111122,1111122' 
TCOON,ioos:station:TCOON:003:1,2009-10-01T06:00:00Z,26.8015,-97.4706,0.0,7.7,160.0,,'1111122,1111122,1111122' 
TCOON,ioos:station:TCOON:003:1,2009-10-01T07:00:00Z,26.8015,-97.4706,0.0,6.7,200.0,,'1111122,1111122,1111122' 
TCOON,ioos:station:TCOON:003:1,2009-10-01T08:00:00Z,26.8015,-97.4706,0.0,6.2,190.0,,'1111122,1111122,1111122' 
TCOON,ioos:station:TCOON:003:1,2009-10-01T09:00:00Z,26.8015,-97.4706,0.0,6.2,190.0,,'1111122,1111122,1111122' 
TCOON,ioos:station:TCOON:003:1,2009-10-01T10:00:00Z,26.8015,-97.4706,0.0,6.2,190.0,,'1111122,1111122,1111122' 
TCOON,ioos:station:TCOON:003:1,2009-10-01T11:00:00Z,26.8015,-97.4706,0.0,5.7,200.0,,'1111122,1111122,1111122' 
TCOON,ioos:station:TCOON:003:1,2009-10-01T12:00:00Z,26.8015,-97.4706,0.0,7.2,190.0,,'1111122,1111122,1111122' 
TCOON,ioos:station:TCOON:003:1,2009-10-01T13:00:00Z,26.8015,-97.4706,0.0,6.2,190.0,,'1111122,1111122,1111122' 
TCOON,ioos:station:TCOON:003:1,2009-10-01T14:00:00Z,26.8015,-97.4706,0.0,7.2,180.0,,'1111122,1111122,1111122' 
TCOON,ioos:station:TCOON:003:1,2009-10-01T15:00:00Z,26.8015,-97.4706,0.0,7.7,170.0,,'1111122,1111122,1111122' 
TCOON,ioos:station:TCOON:003:1,2009-10-01T16:00:00Z,26.8015,-97.4706,0.0,7.7,160.0,,'1111122,1111122,1111122' 
TCOON,ioos:station:TCOON:003:1,2009-10-01T17:00:00Z,26.8015,-97.4706,0.0,9.3,160.0,,'1111122,1111122,1111122' 
TCOON,ioos:station:TCOON:003:1,2009-10-01T18:00:00Z,26.8015,-97.4706,0.0,8.9,162.0,10.6,'11111222,11111222,11111222' 
TCOON,ioos:station:TCOON:003:1,2009-10-01T19:00:00Z,26.8015,-97.4706,0.0,10.3,160.0,,'1111122,1111122,1111122' 
TCOON,ioos:station:TCOON:003:1,2009-10-01T20:00:00Z,26.8015,-97.4706,0.0,9.8,160.0,,'1111122,1111122,1111122' 
TCOON,ioos:station:TCOON:003:1,2009-10-01T21:00:00Z,26.8015,-97.4706,0.0,10.4,158.0,12.0,'11111222,11111222,11111222' 
TCOON,ioos:station:TCOON:003:1,2009-10-01T22:00:00Z,26.8015,-97.4706,0.0,11.3,160.0,,'1111122,1111122,1111122' 
TCOON,ioos:station:TCOON:003:1,2009-10-01T23:00:00Z,26.8015,-97.4706,0.0,9.8,150.0,,'1111122,1111122,1111122' 
TCOON,ioos:station:TCOON:003:1,2009-10-02T00:00:00Z,26.8015,-97.4706,0.0,9.8,160.0,,'1111122,1111122,1111122' 
TCOON,ioos:station:TCOON:003:1,2009-10-02T01:00:00Z,26.8015,-97.4706,0.0,9.3,160.0,,'1111122,1111122,1111122' 
TCOON,ioos:station:TCOON:003:1,2009-10-02T02:00:00Z,26.8015,-97.4706,0.0,8.7,170.0,,'1111122,1111122,1111122' 
TCOON,ioos:station:TCOON:003:1,2009-10-02T03:00:00Z,26.8015,-97.4706,0.0,6.7,190.0,,'1111122,1111122,1111122' 
TCOON,ioos:station:TCOON:003:1,2009-10-02T04:00:00Z,26.8015,-97.4706,0.0,7.2,190.0,,'1111122,1111122,1111122' 
TCOON,ioos:station:TCOON:003:1,2009-10-02T05:00:00Z,26.8015,-97.4706,0.0,8.2,190.0,,'1111122,1111122,1111122' 
TCOON,ioos:station:TCOON:003:1,2009-10-02T06:00:00Z,26.8015,-97.4706,0.0,7.2,200.0,,'1111122,1111122,1111122' 
TCOON,ioos:station:TCOON:003:1,2009-10-02T07:00:00Z,26.8015,-97.4706,0.0,7.2,190.0,,'1111122,1111122,1111122' 
TCOON,ioos:station:TCOON:003:1,2009-10-02T08:00:00Z,26.8015,-97.4706,0.0,7.2,190.0,,'1111122,1111122,1111122' 
TCOON,ioos:station:TCOON:003:1,2009-10-02T09:00:00Z,26.8015,-97.4706,0.0,6.2,200.0,,'1111122,1111122,1111122' 
TCOON,ioos:station:TCOON:003:1,2009-10-02T10:00:00Z,26.8015,-97.4706,0.0,4.6,190.0,,'1111122,1111122,1111122' 
TCOON,ioos:station:TCOON:003:1,2009-10-02T11:00:00Z,26.8015,-97.4706,0.0,5.1,180.0,,'1111122,1111122,1111122' 
TCOON,ioos:station:TCOON:003:1,2009-10-02T12:00:00Z,26.8015,-97.4706,0.0,5.7,190.0,,'1111122,1111122,1111122' 
TCOON,ioos:station:TCOON:003:1,2009-10-02T13:00:00Z,26.8015,-97.4706,0.0,4.1,200.0,,'1111122,1111122,1111122' 
TCOON,ioos:station:TCOON:003:1,2009-10-02T14:00:00Z,26.8015,-97.4706,0.0,6.7,220.0,,'1111122,1111122,1111122' 
TCOON,ioos:station:TCOON:003:1,2009-10-02T15:00:00Z,26.8015,-97.4706,0.0,4.1,230.0,,'1111122,1111122,1111122' 
TCOON,ioos:station:TCOON:003:1,2009-10-02T16:00:00Z,26.8015,-97.4706,0.0,3.1,10.0,,'1111122,1111122,1111122' 
TCOON,ioos:station:TCOON:003:1,2009-10-02T17:00:00Z,26.8015,-97.4706,0.0,0.5,150.0,,'1111122,1111122,1111122' 
TCOON,ioos:station:TCOON:003:1,2009-10-02T18:00:00Z,26.8015,-97.4706,0.0,1.0,230.0,,'1111122,1111122,1111122' 
TCOON,ioos:station:TCOON:003:1,2009-10-02T19:00:00Z,26.8015,-97.4706,0.0,5.1,100.0,,'1111122,1111122,1111122' 
TCOON,ioos:station:TCOON:003:1,2009-10-02T20:00:00Z,26.8015,-97.4706,0.0,6.2,90.0,,'1111122,1111122,1111122' 
TCOON,ioos:station:TCOON:003:1,2009-10-02T21:00:00Z,26.8015,-97.4706,0.0,4.6,80.0,,'1111122,1111122,1111122' 
TCOON,ioos:station:TCOON:003:1,2009-10-02T22:00:00Z,26.8015,-97.4706,0.0,6.7,60.0,,'1111122,1111122,1111122' 
TCOON,ioos:station:TCOON:003:1,2009-10-02T23:00:00Z,26.8015,-97.4706,0.0,7.2,60.0,,'1111122,1111122,1111122' 
TCOON,ioos:station:TCOON:003:1,2009-10-03T00:00:00Z,26.8015,-97.4706,0.0,5.7,70.0,,'1111122,1111122,1111122' 
TCOON,ioos:station:TCOON:003:1,2009-10-03T01:00:00Z,26.8015,-97.4706,0.0,4.1,80.0,,'1111122,1111122,1111122' 
TCOON,ioos:station:TCOON:003:1,2009-10-03T02:00:00Z,26.8015,-97.4706,0.0,3.1,110.0,,'1111122,1111122,1111122' 
TCOON,ioos:station:TCOON:003:1,2009-10-03T03:00:00Z,26.8015,-97.4706,0.0,5.1,140.0,,'1111122,1111122,1111122' 
TCOON,ioos:station:TCOON:003:1,2009-10-03T04:00:00Z,26.8015,-97.4706,0.0,5.1,150.0,,'1111122,1111122,1111122' 
TCOON,ioos:station:TCOON:003:1,2009-10-03T05:00:00Z,26.8015,-97.4706,0.0,4.1,140.0,,'1111122,1111122,1111122' 
TCOON,ioos:station:TCOON:003:1,2009-10-03T06:00:00Z,26.8015,-97.4706,0.0,3.6,210.0,,'1111122,1111122,1111122' 
TCOON,ioos:station:TCOON:003:1,2009-10-03T07:00:00Z,26.8015,-97.4706,0.0,3.1,220.0,,'1111122,1111122,1111122' 
TCOON,ioos:station:TCOON:003:1,2009-10-03T08:00:00Z,26.8015,-97.4706,0.0,3.6,210.0,,'1111122,1111122,1111122' 
TCOON,ioos:station:TCOON:003:1,2009-10-03T09:00:00Z,26.8015,-97.4706,0.0,2.6,220.0,,'1111122,1111122,1111122' 
TCOON,ioos:station:TCOON:003:1,2009-10-03T10:00:00Z,26.8015,-97.4706,0.0,3.1,200.0,,'1111122,1111122,1111122' 
TCOON,ioos:station:TCOON:003:1,2009-10-03T11:00:00Z,26.8015,-97.4706,0.0,3.6,190.0,,'1111122,1111122,1111122' 
TCOON,ioos:station:TCOON:003:1,2009-10-03T12:00:00Z,26.8015,-97.4706,0.0,4.6,180.0,,'1111122,1111122,1111122' 
TCOON,ioos:station:TCOON:003:1,2009-10-03T13:00:00Z,26.8015,-97.4706,0.0,4.6,180.0,,'1111122,1111122,1111122' 
TCOON,ioos:station:TCOON:003:1,2009-10-03T14:00:00Z,26.8015,-97.4706,0.0,4.1,170.0,,'1111122,1111122,1111122' 
TCOON,ioos:station:TCOON:003:1,2009-10-03T15:00:00Z,26.8015,-97.4706,0.0,4.6,170.0,,'1111122,1111122,1111122' 
TCOON,ioos:station:TCOON:003:1,2009-10-03T16:00:00Z,26.8015,-97.4706,0.0,5.1,180.0,,'1111122,1111122,1111122' 
TCOON,ioos:station:TCOON:003:1,2009-10-03T17:00:00Z,26.8015,-97.4706,0.0,6.2,150.0,,'1111122,1111122,1111122' 
TCOON,ioos:station:TCOON:003:1,2009-10-03T18:00:00Z,26.8015,-97.4706,0.0,7.7,150.0,,'1111122,1111122,1111122' 
TCOON,ioos:station:TCOON:003:1,2009-10-03T19:00:00Z,26.8015,-97.4706,0.0,8.2,150.0,,'1111122,1111122,1111122' 
TCOON,ioos:station:TCOON:003:1,2009-10-03T20:00:00Z,26.8015,-97.4706,0.0,8.7,150.0,,'1111122,1111122,1111122' 
TCOON,ioos:station:TCOON:003:1,2009-10-04T05:00:00Z,26.8015,-97.4706,0.0,8.3,194.0,9.5,'11111222,11111222,11111222' 
TCOON,ioos:station:TCOON:003:1,2009-10-04T06:00:00Z,26.8015,-97.4706,0.0,8.2,190.0,,'1111122,1111122,1111122' 
TCOON,ioos:station:TCOON:003:1,2009-10-04T07:00:00Z,26.8015,-97.4706,0.0,9.3,190.0,,'1111122,1111122,1111122' 
TCOON,ioos:station:TCOON:003:1,2009-10-04T08:00:00Z,26.8015,-97.4706,0.0,8.7,190.0,,'1111122,1111122,1111122' 
TCOON,ioos:station:TCOON:003:1,2009-10-04T09:00:00Z,26.8015,-97.4706,0.0,9.3,180.0,,'1111122,1111122,1111122' 
TCOON,ioos:station:TCOON:003:1,2009-10-04T10:00:00Z,26.8015,-97.4706,0.0,9.8,180.0,,'1111122,1111122,1111122' 
TCOON,ioos:station:TCOON:003:1,2009-10-04T11:00:00Z,26.8015,-97.4706,0.0,9.8,180.0,,'1111122,1111122,1111122' 
TCOON,ioos:station:TCOON:003:1,2009-10-04T12:00:00Z,26.8015,-97.4706,0.0,7.2,190.0,,'1111122,1111122,1111122' 
TCOON,ioos:station:TCOON:003:1,2009-10-04T13:00:00Z,26.8015,-97.4706,0.0,7.7,180.0,,'1111122,1111122,1111122' 
TCOON,ioos:station:TCOON:003:1,2009-10-04T14:00:00Z,26.8015,-97.4706,0.0,8.2,180.0,,'1111122,1111122,1111122' 
TCOON,ioos:station:TCOON:003:1,2009-10-04T15:00:00Z,26.8015,-97.4706,0.0,7.7,170.0,,'1111122,1111122,1111122' 
TCOON,ioos:station:TCOON:003:1,2009-10-04T16:00:00Z,26.8015,-97.4706,0.0,9.3,170.0,,'1111122,1111122,1111122' 
TCOON,ioos:station:TCOON:003:1,2009-10-04T17:00:00Z,26.8015,-97.4706,0.0,9.8,160.0,,'1111122,1111122,1111122' 
TCOON,ioos:station:TCOON:003:1,2009-10-04T18:00:00Z,26.8015,-97.4706,0.0,9.8,160.0,,'1111122,1111122,1111122' 
TCOON,ioos:station:TCOON:003:1,2009-10-04T19:00:00Z,26.8015,-97.4706,0.0,10.3,160.0,,'1111122,1111122,1111122' 
TCOON,ioos:station:TCOON:003:1,2009-10-04T20:00:00Z,26.8015,-97.4706,0.0,9.3,160.0,,'1111122,1111122,1111122' 
TCOON,ioos:station:TCOON:003:1,2009-10-04T21:00:00Z,26.8015,-97.4706,0.0,9.8,170.0,,'1111122,1111122,1111122' 
TCOON,ioos:station:TCOON:003:1,2009-10-04T22:00:00Z,26.8015,-97.4706,0.0,10.3,160.0,,'1111122,1111122,1111122' 
TCOON,ioos:station:TCOON:003:1,2009-10-04T23:00:00Z,26.8015,-97.4706,0.0,9.3,160.0,,'1111122,1111122,1111122' 
TCOON,ioos:station:TCOON:003:1,2009-10-05T00:00:00Z,26.8015,-97.4706,0.0,9.8,160.0,,'1111122,1111122,1111122' 
TCOON,ioos:station:TCOON:003:1,2009-10-05T01:00:00Z,26.8015,-97.4706,0.0,9.3,180.0,,'1111122,1111122,1111122' 
TCOON,ioos:station:TCOON:003:1,2009-10-05T02:00:00Z,26.8015,-97.4706,0.0,9.8,180.0,,'1111122,1111122,1111122' 
TCOON,ioos:station:TCOON:003:1,2009-10-05T03:00:00Z,26.8015,-97.4706,0.0,8.2,180.0,,'1111122,1111122,1111122' 
TCOON,ioos:station:TCOON:003:1,2009-10-05T04:00:00Z,26.8015,-97.4706,0.0,9.3,180.0,,'1111122,1111122,1111122' 
TCOON,ioos:station:TCOON:003:1,2009-10-05T05:00:00Z,26.8015,-97.4706,0.0,8.7,190.0,,'1111122,1111122,1111122' 
TCOON,ioos:station:TCOON:003:1,2009-10-05T06:00:00Z,26.8015,-97.4706,0.0,7.2,190.0,,'1111122,1111122,1111122' 
TCOON,ioos:station:TCOON:003:1,2009-10-05T07:00:00Z,26.8015,-97.4706,0.0,6.2,200.0,,'1111122,1111122,1111122' 
TCOON,ioos:station:TCOON:003:1,2009-10-05T08:00:00Z,26.8015,-97.4706,0.0,5.7,190.0,,'1111122,1111122,1111122' 
TCOON,ioos:station:TCOON:003:1,2009-10-05T09:00:00Z,26.8015,-97.4706,0.0,6.2,170.0,,'1111122,1111122,1111122' 
TCOON,ioos:station:TCOON:003:1,2009-10-05T10:00:00Z,26.8015,-97.4706,0.0,6.7,170.0,,'1111122,1111122,1111122' 
TCOON,ioos:station:TCOON:003:1,2009-10-05T11:00:00Z,26.8015,-97.4706,0.0,4.6,140.0,,'1111122,1111122,1111122' 
TCOON,ioos:station:TCOON:003:1,2009-10-05T12:00:00Z,26.8015,-97.4706,0.0,6.7,160.0,,'1111122,1111122,1111122' 
TCOON,ioos:station:TCOON:003:1,2009-10-05T13:00:00Z,26.8015,-97.4706,0.0,6.7,170.0,,'1111122,1111122,1111122' 
TCOON,ioos:station:TCOON:003:1,2009-10-05T14:00:00Z,26.8015,-97.4706,0.0,8.7,170.0,,'1111122,1111122,1111122' 
TCOON,ioos:station:TCOON:003:1,2009-10-05T15:00:00Z,26.8015,-97.4706,0.0,8.2,170.0,,'1111122,1111122,1111122' 
TCOON,ioos:station:TCOON:003:1,2009-10-05T16:00:00Z,26.8015,-97.4706,0.0,9.3,160.0,,'1111122,1111122,1111122' 
TCOON,ioos:station:TCOON:003:1,2009-10-05T17:00:00Z,26.8015,-97.4706,0.0,8.7,160.0,,'1111122,1111122,1111122' 
TCOON,ioos:station:TCOON:003:1,2009-10-05T18:00:00Z,26.8015,-97.4706,0.0,8.7,160.0,,'1111122,1111122,1111122' 
TCOON,ioos:station:TCOON:003:1,2009-10-05T19:00:00Z,26.8015,-97.4706,0.0,9.3,150.0,,'1111122,1111122,1111122' 
TCOON,ioos:station:TCOON:003:1,2009-10-05T20:00:00Z,26.8015,-97.4706,0.0,9.8,150.0,,'1111122,1111122,1111122' 
TCOON,ioos:station:TCOON:003:1,2009-10-05T21:00:00Z,26.8015,-97.4706,0.0,10.3,150.0,,'1111122,1111122,1111122' 
TCOON,ioos:station:TCOON:003:1,2009-10-05T22:00:00Z,26.8015,-97.4706,0.0,11.3,150.0,,'1111122,1111122,1111122' 
TCOON,ioos:station:TCOON:003:1,2009-10-06T00:00:00Z,26.8015,-97.4706,0.0,9.3,157.0,10.6,'11111222,11111222,11111222' 
TCOON,ioos:station:TCOON:003:1,2009-10-06T01:00:00Z,26.8015,-97.4706,0.0,9.3,160.0,,'1111122,1111122,1111122' 
TCOON,ioos:station:TCOON:003:1,2009-10-06T02:00:00Z,26.8015,-97.4706,0.0,9.3,160.0,,'1111122,1111122,1111122' 
TCOON,ioos:station:TCOON:003:1,2009-10-06T03:00:00Z,26.8015,-97.4706,0.0,8.8,160.0,10.3,'11111222,11111222,11111222' 
TCOON,ioos:station:TCOON:003:1,2009-10-06T04:00:00Z,26.8015,-97.4706,0.0,8.7,170.0,,'1111122,1111122,1111122' 
TCOON,ioos:station:TCOON:003:1,2009-10-06T05:00:00Z,26.8015,-97.4706,0.0,7.7,190.0,,'1111122,1111122,1111122' 
TCOON,ioos:station:TCOON:003:1,2009-10-06T06:00:00Z,26.8015,-97.4706,0.0,7.7,190.0,,'1111122,1111122,1111122' 
TCOON,ioos:station:TCOON:003:1,2009-10-06T07:00:00Z,26.8015,-97.4706,0.0,8.2,190.0,,'1111122,1111122,1111122' 
TCOON,ioos:station:TCOON:003:1,2009-10-06T08:00:00Z,26.8015,-97.4706,0.0,7.7,190.0,,'1111122,1111122,1111122' 
TCOON,ioos:station:TCOON:003:1,2009-10-06T09:00:00Z,26.8015,-97.4706,0.0,7.2,190.0,,'1111122,1111122,1111122' 
TCOON,ioos:station:TCOON:003:1,2009-10-06T10:00:00Z,26.8015,-97.4706,0.0,9.3,180.0,,'1111122,1111122,1111122' 
TCOON,ioos:station:TCOON:003:1,2009-10-06T11:00:00Z,26.8015,-97.4706,0.0,8.2,180.0,,'1111122,1111122,1111122' 
TCOON,ioos:station:TCOON:003:1,2009-10-06T12:00:00Z,26.8015,-97.4706,0.0,9.8,180.0,,'1111122,1111122,1111122' 
TCOON,ioos:station:TCOON:003:1,2009-10-06T13:00:00Z,26.8015,-97.4706,0.0,10.8,180.0,,'1111122,1111122,1111122' 
TCOON,ioos:station:TCOON:003:1,2009-10-06T14:00:00Z,26.8015,-97.4706,0.0,11.3,180.0,,'1111122,1111122,1111122' 
TCOON,ioos:station:TCOON:003:1,2009-10-06T15:00:00Z,26.8015,-97.4706,0.0,10.3,170.0,,'1111122,1111122,1111122' 
TCOON,ioos:station:TCOON:003:1,2009-10-06T16:00:00Z,26.8015,-97.4706,0.0,9.3,170.0,,'1111122,1111122,1111122' 
TCOON,ioos:station:TCOON:003:1,2009-10-06T17:00:00Z,26.8015,-97.4706,0.0,9.3,170.0,,'1111122,1111122,1111122' 
TCOON,ioos:station:TCOON:003:1,2009-10-06T18:00:00Z,26.8015,-97.4706,0.0,11.3,160.0,,'1111122,1111122,1111122' 
TCOON,ioos:station:TCOON:003:1,2009-10-06T19:00:00Z,26.8015,-97.4706,0.0,11.8,160.0,,'1111122,1111122,1111122' 
TCOON,ioos:station:TCOON:003:1,2009-10-06T20:00:00Z,26.8015,-97.4706,0.0,11.3,160.0,,'1111122,1111122,1111122' 
TCOON,ioos:station:TCOON:003:1,2009-10-06T21:00:00Z,26.8015,-97.4706,0.0,12.3,160.0,,'1111122,1111122,1111122' 
TCOON,ioos:station:TCOON:003:1,2009-10-06T22:00:00Z,26.8015,-97.4706,0.0,12.3,160.0,,'1111122,1111122,1111122' 
TCOON,ioos:station:TCOON:003:1,2009-10-06T23:00:00Z,26.8015,-97.4706,0.0,11.8,160.0,,'1111122,1111122,1111122' 
TCOON,ioos:station:TCOON:003:1,2009-10-07T00:00:00Z,26.8015,-97.4706,0.0,10.8,160.0,,'1111122,1111122,1111122' 
TCOON,ioos:station:TCOON:003:1,2009-10-07T01:00:00Z,26.8015,-97.4706,0.0,10.3,160.0,,'1111122,1111122,1111122' 
TCOON,ioos:station:TCOON:003:1,2009-10-07T02:00:00Z,26.8015,-97.4706,0.0,9.8,160.0,,'1111122,1111122,1111122' 
TCOON,ioos:station:TCOON:003:1,2009-10-07T03:00:00Z,26.8015,-97.4706,0.0,9.8,160.0,,'1111122,1111122,1111122' 
TCOON,ioos:station:TCOON:003:1,2009-10-07T04:00:00Z,26.8015,-97.4706,0.0,8.2,160.0,,'1111122,1111122,1111122' 
TCOON,ioos:station:TCOON:003:1,2009-10-07T05:00:00Z,26.8015,-97.4706,0.0,7.7,150.0,,'1111122,1111122,1111122' 
TCOON,ioos:station:TCOON:003:1,2009-10-07T06:00:00Z,26.8015,-97.4706,0.0,8.2,160.0,,'1111122,1111122,1111122' 
TCOON,ioos:station:TCOON:003:1,2009-10-07T07:00:00Z,26.8015,-97.4706,0.0,11.3,170.0,,'1111122,1111122,1111122' 
TCOON,ioos:station:TCOON:003:1,2009-10-07T08:00:00Z,26.8015,-97.4706,0.0,9.3,170.0,,'1111122,1111122,1111122' 
TCOON,ioos:station:TCOON:003:1,2009-10-07T09:00:00Z,26.8015,-97.4706,0.0,9.8,170.0,,'1111122,1111122,1111122' 
TCOON,ioos:station:TCOON:003:1,2009-10-07T10:00:00Z,26.8015,-97.4706,0.0,9.1,174.0,10.3,'11111222,11111222,11111222' 
TCOON,ioos:station:TCOON:003:1,2009-10-07T11:00:00Z,26.8015,-97.4706,0.0,6.2,190.0,,'1111122,1111122,1111122' 
TCOON,ioos:station:TCOON:003:1,2009-10-07T13:00:00Z,26.8015,-97.4706,0.0,6.2,160.0,,'1111122,1111122,1111122' 
TCOON,ioos:station:TCOON:003:1,2009-10-07T14:00:00Z,26.8015,-97.4706,0.0,5.1,180.0,,'1111122,1111122,1111122' 
TCOON,ioos:station:TCOON:003:1,2009-10-07T15:00:00Z,26.8015,-97.4706,0.0,8.7,170.0,,'1111122,1111122,1111122' 
TCOON,ioos:station:TCOON:003:1,2009-10-07T16:00:00Z,26.8015,-97.4706,0.0,9.8,170.0,,'1111122,1111122,1111122' 
TCOON,ioos:station:TCOON:003:1,2009-10-07T17:00:00Z,26.8015,-97.4706,0.0,9.3,170.0,,'1111122,1111122,1111122' 
TCOON,ioos:station:TCOON:003:1,2009-10-07T19:00:00Z,26.8015,-97.4706,0.0,9.8,160.0,,'1111122,1111122,1111122' 
TCOON,ioos:station:TCOON:003:1,2009-10-07T20:00:00Z,26.8015,-97.4706,0.0,9.7,149.0,10.8,'11111222,11111222,11111222' 
TCOON,ioos:station:TCOON:003:1,2009-10-07T21:00:00Z,26.8015,-97.4706,0.0,9.7,160.0,11.2,'11111222,11111222,11111222' 
TCOON,ioos:station:TCOON:003:1,2009-10-07T22:00:00Z,26.8015,-97.4706,0.0,9.5,154.0,11.4,'11111222,11111222,11111222' 
TCOON,ioos:station:TCOON:003:1,2009-10-07T23:00:00Z,26.8015,-97.4706,0.0,10.3,150.0,,'1111122,1111122,1111122' 
TCOON,ioos:station:TCOON:003:1,2009-10-08T00:00:00Z,26.8015,-97.4706,0.0,9.8,160.0,,'1111122,1111122,1111122' 
TCOON,ioos:station:TCOON:003:1,2009-10-08T01:00:00Z,26.8015,-97.4706,0.0,9.8,160.0,,'1111122,1111122,1111122' 
TCOON,ioos:station:TCOON:003:1,2009-10-08T02:00:00Z,26.8015,-97.4706,0.0,9.3,160.0,,'1111122,1111122,1111122' 
TCOON,ioos:station:TCOON:003:1,2009-10-08T03:00:00Z,26.8015,-97.4706,0.0,9.3,160.0,,'1111122,1111122,1111122' 
TCOON,ioos:station:TCOON:003:1,2009-10-08T04:00:00Z,26.8015,-97.4706,0.0,9.8,160.0,,'1111122,1111122,1111122' 
TCOON,ioos:station:TCOON:003:1,2009-10-08T05:00:00Z,26.8015,-97.4706,0.0,10.8,160.0,,'1111122,1111122,1111122' 
TCOON,ioos:station:TCOON:003:1,2009-10-08T06:00:00Z,26.8015,-97.4706,0.0,11.9,166.0,13.9,'11111222,11111222,11111222' 
TCOON,ioos:station:TCOON:003:1,2009-10-08T07:00:00Z,26.8015,-97.4706,0.0,12.3,170.0,,'1111122,1111122,1111122' 
TCOON,ioos:station:TCOON:003:1,2009-10-08T08:00:00Z,26.8015,-97.4706,0.0,11.7,166.0,13.8,'11111222,11111222,11111222' 
TCOON,ioos:station:TCOON:003:1,2009-10-08T09:00:00Z,26.8015,-97.4706,0.0,10.8,160.0,,'1111122,1111122,1111122' 
TCOON,ioos:station:TCOON:003:1,2009-10-08T10:00:00Z,26.8015,-97.4706,0.0,11.3,160.0,,'1111122,1111122,1111122' 
TCOON,ioos:station:TCOON:003:1,2009-10-08T11:00:00Z,26.8015,-97.4706,0.0,11.3,160.0,,'1111122,1111122,1111122' 
TCOON,ioos:station:TCOON:003:1,2009-10-08T12:00:00Z,26.8015,-97.4706,0.0,10.8,160.0,,'1111122,1111122,1111122' 
TCOON,ioos:station:TCOON:003:1,2009-10-08T13:00:00Z,26.8015,-97.4706,0.0,11.8,160.0,,'1111122,1111122,1111122' 
TCOON,ioos:station:TCOON:003:1,2009-10-08T14:00:00Z,26.8015,-97.4706,0.0,12.2,173.0,13.7,'11111222,11111222,11111222' 
TCOON,ioos:station:TCOON:003:1,2009-10-08T15:00:00Z,26.8015,-97.4706,0.0,12.3,170.0,,'1111122,1111122,1111122' 
TCOON,ioos:station:TCOON:003:1,2009-10-08T16:00:00Z,26.8015,-97.4706,0.0,12.9,170.0,,'1111122,1111122,1111122' 
TCOON,ioos:station:TCOON:003:1,2009-10-08T17:00:00Z,26.8015,-97.4706,0.0,11.8,170.0,,'1111122,1111122,1111122' 
TCOON,ioos:station:TCOON:003:1,2009-10-08T18:00:00Z,26.8015,-97.4706,0.0,14.4,170.0,,'1111122,1111122,1111122' 
TCOON,ioos:station:TCOON:003:1,2009-10-08T19:00:00Z,26.8015,-97.4706,0.0,13.9,160.0,,'1111122,1111122,1111122' 
TCOON,ioos:station:TCOON:003:1,2009-10-08T20:00:00Z,26.8015,-97.4706,0.0,14.4,160.0,,'1111122,1111122,1111122' 
TCOON,ioos:station:TCOON:003:1,2009-10-08T21:00:00Z,26.8015,-97.4706,0.0,13.9,170.0,,'1111122,1111122,1111122' 
TCOON,ioos:station:TCOON:003:1,2009-10-08T22:00:00Z,26.8015,-97.4706,0.0,13.4,170.0,,'1111122,1111122,1111122' 
TCOON,ioos:station:TCOON:003:1,2009-10-08T23:00:00Z,26.8015,-97.4706,0.0,12.7,166.0,14.8,'11111222,11111222,11111222' 
TCOON,ioos:station:TCOON:003:1,2009-10-09T00:00:00Z,26.8015,-97.4706,0.0,12.9,170.0,,'1111122,1111122,1111122' 
TCOON,ioos:station:TCOON:003:1,2009-10-09T01:00:00Z,26.8015,-97.4706,0.0,13.9,180.0,,'1111122,1111122,1111122' 
TCOON,ioos:station:TCOON:003:1,2009-10-09T02:00:00Z,26.8015,-97.4706,0.0,13.4,170.0,,'1111122,1111122,1111122' 
TCOON,ioos:station:TCOON:003:1,2009-10-09T03:00:00Z,26.8015,-97.4706,0.0,14.4,180.0,,'1111122,1111122,1111122' 
TCOON,ioos:station:TCOON:003:1,2009-10-09T04:00:00Z,26.8015,-97.4706,0.0,11.8,180.0,,'1111122,1111122,1111122' 
TCOON,ioos:station:TCOON:003:1,2009-10-09T05:00:00Z,26.8015,-97.4706,0.0,10.8,190.0,,'1111122,1111122,1111122' 
TCOON,ioos:station:TCOON:003:1,2009-10-09T06:00:00Z,26.8015,-97.4706,0.0,10.6,189.0,12.3,'11111222,11111222,11111222' 
TCOON,ioos:station:TCOON:003:1,2009-10-09T07:00:00Z,26.8015,-97.4706,0.0,10.8,190.0,,'1111122,1111122,1111122' 
TCOON,ioos:station:TCOON:003:1,2009-10-09T08:00:00Z,26.8015,-97.4706,0.0,11.3,180.0,,'1111122,1111122,1111122' 
TCOON,ioos:station:TCOON:003:1,2009-10-09T09:00:00Z,26.8015,-97.4706,0.0,12.9,180.0,,'1111122,1111122,1111122' 
TCOON,ioos:station:TCOON:003:1,2009-10-09T10:00:00Z,26.8015,-97.4706,0.0,11.3,190.0,,'1111122,1111122,1111122' 
TCOON,ioos:station:TCOON:003:1,2009-10-09T11:00:00Z,26.8015,-97.4706,0.0,9.3,200.0,,'1111122,1111122,1111122' 
TCOON,ioos:station:TCOON:003:1,2009-10-09T12:00:00Z,26.8015,-97.4706,0.0,8.0,198.0,9.9,'11111222,11111222,11111222' 
TCOON,ioos:station:TCOON:003:1,2009-10-09T13:00:00Z,26.8015,-97.4706,0.0,7.5,188.0,9.2,'11111222,11111222,11111222' 
TCOON,ioos:station:TCOON:003:1,2009-10-09T14:00:00Z,26.8015,-97.4706,0.0,8.7,210.0,,'1111122,1111122,1111122' 
TCOON,ioos:station:TCOON:003:1,2009-10-09T15:00:00Z,26.8015,-97.4706,0.0,8.7,220.0,,'1111122,1111122,1111122' 
TCOON,ioos:station:TCOON:003:1,2009-10-09T16:00:00Z,26.8015,-97.4706,0.0,6.2,230.0,,'1111122,1111122,1111122' 
TCOON,ioos:station:TCOON:003:1,2009-10-09T17:00:00Z,26.8015,-97.4706,0.0,12.9,10.0,,'1111122,1111122,1111122' 
TCOON,ioos:station:TCOON:003:1,2009-10-09T18:00:00Z,26.8015,-97.4706,0.0,10.3,30.0,,'1111122,1111122,1111122' 
TCOON,ioos:station:TCOON:003:1,2009-10-09T19:00:00Z,26.8015,-97.4706,0.0,10.8,10.0,,'1111122,1111122,1111122' 
TCOON,ioos:station:TCOON:003:1,2009-10-09T20:00:00Z,26.8015,-97.4706,0.0,10.9,19.0,13.1,'11111222,11111222,11111222' 
TCOON,ioos:station:TCOON:003:1,2009-10-09T21:00:00Z,26.8015,-97.4706,0.0,10.1,7.0,12.3,'11111222,11111222,11111222' 
TCOON,ioos:station:TCOON:003:1,2009-10-09T22:00:00Z,26.8015,-97.4706,0.0,8.7,10.0,,'1111122,1111122,1111122' 
TCOON,ioos:station:TCOON:003:1,2009-10-09T23:00:00Z,26.8015,-97.4706,0.0,8.7,360.0,,'1111122,1111122,1111122' 
TCOON,ioos:station:TCOON:003:1,2009-10-10T00:00:00Z,26.8015,-97.4706,0.0,8.2,360.0,,'1111122,1111122,1111122' 
TCOON,ioos:station:TCOON:003:1,2009-10-10T01:00:00Z,26.8015,-97.4706,0.0,10.3,10.0,,'1111122,1111122,1111122' 
TCOON,ioos:station:TCOON:003:1,2009-10-10T02:00:00Z,26.8015,-97.4706,0.0,9.8,20.0,,'1111122,1111122,1111122' 
TCOON,ioos:station:TCOON:003:1,2009-10-10T03:00:00Z,26.8015,-97.4706,0.0,9.8,360.0,,'1111122,1111122,1111122' 
TCOON,ioos:station:TCOON:003:1,2009-10-10T04:00:00Z,26.8015,-97.4706,0.0,7.2,360.0,,'1111122,1111122,1111122' 
TCOON,ioos:station:TCOON:003:1,2009-10-10T05:00:00Z,26.8015,-97.4706,0.0,7.7,350.0,,'1111122,1111122,1111122' 
TCOON,ioos:station:TCOON:003:1,2009-10-10T06:00:00Z,26.8015,-97.4706,0.0,6.7,340.0,,'1111122,1111122,1111122' 
TCOON,ioos:station:TCOON:003:1,2009-10-10T07:00:00Z,26.8015,-97.4706,0.0,8.7,350.0,,'1111122,1111122,1111122' 
TCOON,ioos:station:TCOON:003:1,2009-10-10T08:00:00Z,26.8015,-97.4706,0.0,8.7,350.0,,'1111122,1111122,1111122' 